Temperature
24 23 22 21 21 20 20 20 20 19 19 19 19 19 19 19 19 19 18 18 18 18 18 18 18 18 18 18 18 18 18 18 18 18 18 19 19 18 18 18 18 18 18
24 23 22 22 21 21 20 20 20 20 20 19 19 19 19 19 19 19 18 18 18 18 18 18 18 18 18 18 18 18 18 18 18 18 19 19 19 18 19 18 18 18 18
25 23 22 22 22 21 21 21 20 20 20 20 19 19 19 19 19 19 18 18 18 18 18 18 18 18 18 18 18 18 18 18 18 18 18 19 20 19 19 18 18 18 18
25 24 23 22 22 22 21 21 21 20 20 20 19 19 19 19 19 19 19 18 18 18 18 18 18 18 18 18 18 18 18 18 18 18 18 18 18 19 19 18 18 18 17
25 24 23 23 22 22 21 21 21 21 20 20 20 19 19 19 19 19 19 19 18 18 18 18 18 18 18 18 18 18 18 18 18 18 18 18 18 18 18 18 18 18 18
25 24 23 22 22 22 21 21 21 21 20 20 20 20 19 19 19 19 19 19 18 18 18 18 18 18 18 18 18 18 18 17 17 18 18 18 18 18 18 18 18 18 18
25 24 23 22 22 21 21 21 21 21 20 20 20 19 19 19 19 19 18 18 18 18 18 18 18 18 18 18 18 18 17 17 17 17 17 17 18 18 18 18 18 18 18
25 24 23 22 21 21 21 21 21 20 20 20 20 19 19 19 19 19 18 18 18 18 18 18 18 18 18 17 17 17 17 17 17 17 17 17 17 17 17 17 17 18 18
24 24 23 22 21 21 21 21 20 20 20 20 20 19 19 19 19 18 18 18 18 18 18 18 18 18 18 17 17 17 17 17 17 17 17 17 17 17 17 17 17 17 18
24 23 23 22 21 21 21 21 20 20 20 20 19 19 19 19 19 18 18 19 18 18 18 18 18 18 18 17 17 17 17 17 17 17 17 17 17 17 17 17 17 17 17
24 23 22 22 22 21 21 20 20 19 19 19 19 19 19 19 19 19 18 18 18 18 18 18 18 17 17 17 17 17 17 16 16 16 16 16 16 17 17 17 17 17 17
23 23 22 21 21 21 21 20 20 19 19 19 19 18 18 18 18 18 18 18 18 18 18 18 18 17 17 17 17 17 16 16 16 16 16 16 16 16 16 16 16 16 16
23 22 22 21 21 21 20 20 20 19 19 18 18 18 18 18 18 18 18 18 18 18 18 17 17 17 17 17 17 16 16 16 16 16 16 16 16 16 16 16 16 16 16
22 22 21 20 20 20 19 19 19 19 19 18 18 18 18 18 18 18 18 18 18 18 17 17 17 17 17 17 16 16 16 16 16 16 15 15 15 15 15 15 15 15 15
22 21 21 20 19 19 19 19 19 19 18 18 18 18 18 18 18 18 17 17 17 17 17 17 17 16 16 16 16 16 16 16 16 15 15 15 15 16 15 15 15 15 15
22 21 20 20 19 19 19 19 19 18 18 18 18 17 18 17 17 17 17 17 17 17 17 17 16 16 16 16 16 16 16 16 15 15 15 15 15 15 15 15 15 15 15
22 21 20 20 19 19 19 19 18 18 18 18 18 17 17 17 17 17 17 17 17 16 16 16 16 16 16 16 16 16 16 15 15 15 15 15 15 15 15 15 15 15 14
21 21 20 20 19 19 19 18 18 18 17 17 17 17 17 17 17 17 17 17 16 16 16 16 16 16 16 16 16 16 16 15 15 15 15 15 15 15 15 14 14 14 14
21 20 20 20 19 18 18 18 18 17 17 17 17 17 17 16 16 16 16 16 16 16 16 16 16 16 16 16 16 16 15 15 15 15 15 15 15 15 14 14 14 14 14
20 20 19 19 19 18 18 18 17 17 17 17 16 16 16 16 16 16 16 16 16 15 15 15 15 15 15 15 15 15 15 14 14 14 14 15 14 14 14 14 13 13 13
20 19 19 19 18 18 17 17 17 17 16 16 16 16 16 16 16 16 15 15 15 15 15 15 15 15 15 15 15 15 14 14 14 14 14 14 14 14 14 13 13 13 13
19 19 18 18 18 17 17 17 17 16 16 16 16 16 15 15 15 15 15 15 15 15 14 14 14 14 14 14 14 14 14 14 14 14 14 13 14 13 13 13 13 13 13
18 18 18 18 17 17 17 17 16 16 16 16 15 15 15 15 15 15 15 14 14 14 14 14 14 14 14 14 14 14 14 14 13 13 13 13 13 13 13 13 13 12 12
18 17 17 17 17 17 16 16 16 16 16 15 15 15 15 15 15 14 14 14 14 14 14 14 14 14 14 13 13 13 13 13 13 13 13 13 13 13 12 12 12 12 12
17 17 17 17 16 16 16 16 16 16 15 15 15 15 15 15 14 14 14 14 14 14 14 14 14 13 13 13 13 13 13 13 12 12 12 12 12 12 12 12 11 11 11
16 16 16 16 16 16 16 16 15 15 15 15 15 15 14 14 14 14 14 14 13 13 13 13 13 13 13 13 13 13 12 12 12 12 12 12 12 12 12 12 11 11 11
Wind_Speed
9 9 9 9 10 10 10 9 8 8 6 5 5 4 4 4 3 3 3 3 3 2 2 1 2 2 1 1 2 2 2 2 1 2 2 2 3 2 2 2 2 2 2
10 9 10 10 10 10 10 10 9 8 8 6 5 4 3 3 3 2 3 3 3 3 3 2 2 2 2 2 2 2 2 2 1 2 2 2 3 2 2 2 3 2 2
10 10 10 10 10 10 11 10 9 9 9 7 5 4 3 4 3 3 3 3 4 3 2 2 3 2 2 2 2 3 3 2 2 2 2 2 1 1 2 2 2 2 2
10 10 10 11 11 11 10 10 9 9 8 8 7 7 6 5 4 3 3 3 4 4 3 3 3 3 2 2 3 3 3 3 3 2 3 3 2 2 1 2 2 3 3
9 9 9 10 10 10 9 9 9 9 8 8 8 7 6 5 4 4 4 4 4 4 3 3 3 3 3 2 3 2 3 3 4 3 2 3 3 4 4 3 2 3 3
8 8 8 8 8 9 8 8 8 8 8 8 8 8 7 6 5 5 4 5 4 4 4 4 3 3 3 3 3 3 4 3 4 4 3 3 3 3 4 4 4 3 3
8 8 7 7 8 8 8 8 8 8 8 8 8 9 8 8 8 7 5 5 4 5 5 5 4 4 3 4 3 4 4 3 4 4 4 4 4 4 4 4 3 3 2
7 7 7 7 7 8 8 8 8 7 7 8 8 8 8 8 7 7 6 6 5 4 4 5 5 4 4 4 4 4 4 4 4 5 5 4 4 4 5 5 4 4 4
5 6 7 7 7 7 7 7 7 7 7 7 7 8 8 8 7 6 7 6 5 4 5 5 5 5 5 4 4 4 4 4 5 5 5 5 4 4 5 4 4 5 5
6 6 6 6 6 6 6 6 6 6 6 6 6 6 7 7 7 6 6 6 5 5 5 6 6 6 6 5 5 5 4 5 5 5 5 6 5 4 4 5 5 5 5
6 6 5 5 5 5 5 5 5 5 5 5 6 5 6 6 7 6 6 6 6 6 6 6 6 6 6 5 6 6 5 6 6 6 5 6 5 5 4 4 5 5 5
6 6 5 5 4 4 4 4 4 5 5 5 5 6 5 6 7 7 7 7 6 6 6 6 5 6 5 5 6 6 6 6 6 5 5 6 5 5 5 4 5 4 4
6 6 5 4 4 3 3 3 4 4 4 4 5 5 6 6 7 7 7 7 6 6 5 5 6 5 5 6 6 5 5 5 5 5 5 5 5 5 4 5 5 5 5
6 6 5 4 4 3 3 3 3 3 4 4 5 5 5 6 6 6 6 6 6 6 6 5 6 6 5 6 6 6 5 5 5 5 5 5 5 5 5 5 4 4 4
7 6 5 5 4 3 3 2 2 2 2 3 4 4 4 5 5 6 6 6 6 6 6 5 6 6 5 5 5 6 6 5 5 4 5 4 3 2 3 4 4 4 4
7 7 6 5 4 4 3 3 2 2 2 3 3 2 3 4 4 4 5 5 5 5 5 6 6 6 5 2 3 6 6 5 5 5 5 5 4 3 3 2 3 3 5
7 7 6 5 4 4 4 3 3 3 3 3 2 2 3 3 4 4 4 5 5 5 6 7 7 6 5 4 4 5 6 6 5 5 5 4 3 3 4 4 6 4 4
7 6 6 5 4 3 3 3 3 3 3 3 3 3 3 3 3 4 4 5 5 5 5 6 6 6 5 5 5 6 7 6 5 5 5 4 3 3 3 4 4 5 4
6 6 6 5 5 4 3 3 3 3 3 3 3 3 3 3 3 3 4 4 4 5 5 5 5 6 5 5 6 6 6 5 6 5 5 5 4 2 3 5 5 5 4
5 5 5 5 4 4 4 3 3 3 3 3 3 3 3 3 3 3 4 4 4 4 5 4 5 5 5 6 7 7 6 5 5 5 5 5 4 4 4 6 5 6 5
4 5 5 5 4 4 4 4 3 3 2 2 2 3 3 3 3 3 3 3 3 3 4 4 4 5 5 6 8 8 6 5 5 5 5 4 5 5 6 6 6 5 5
5 5 4 4 4 4 4 4 3 2 2 2 2 2 3 3 3 2 2 3 3 4 4 4 5 4 4 4 5 7 7 6 6 5 4 3 5 6 6 5 4 4 6
4 4 4 4 4 4 5 4 3 2 2 2 2 2 2 2 2 3 3 3 3 3 4 4 4 3 3 3 5 7 7 7 6 4 1 3 6 7 6 6 6 6 5
4 4 4 4 3 3 4 3 3 3 3 3 3 2 2 3 2 3 3 3 3 3 4 3 3 3 3 2 3 4 4 5 6 5 3 7 8 7 4 5 6 6 4
3 3 4 4 3 3 3 3 3 4 3 3 3 3 3 2 2 2 2 3 1 2 3 3 3 3 4 3 3 4 4 5 5 4 4 4 4 4 4 4 4 5 5
3 3 3 3 3 3 3 2 3 3 4 3 3 3 2 2 3 2 2 2 0 2 1 2 3 1 1 2 2 3 4 3 3 5 5 5 5 5 5 5 5 5 5
Wind_Direction
185 183 187 187 187 190 194 200 203 194 196 201 207 210 212 218 212 206 196 199 202 197 221 235 170 222 206 233 236 245 232 245 252 242 230 206 199 209 203 223 244 225 227
186 186 190 192 193 193 196 199 204 202 203 202 211 219 225 227 220 211 181 200 199 211 205 212 218 199 199 215 227 237 265 260 242 262 245 224 192 204 206 210 219 242 232
194 191 195 200 199 198 200 203 204 204 207 206 208 206 206 225 212 205 196 199 203 211 227 216 232 226 227 211 223 233 241 257 245 256 274 272 265 253 186 211 214 230 243
199 198 197 201 203 202 200 202 204 207 205 206 211 212 217 219 218 217 205 202 205 210 213 216 226 240 243 235 241 230 246 254 254 234 255 288 319 281 243 214 210 219 229
196 197 198 199 200 198 197 196 198 202 203 208 211 216 221 219 216 212 203 215 208 215 219 214 218 228 242 245 263 255 254 249 261 261 251 249 243 255 264 257 249 235 229
191 190 192 192 194 191 192 190 190 197 200 205 211 214 216 219 220 215 208 213 210 209 208 212 218 229 244 242 248 248 239 257 269 274 267 252 250 248 254 256 245 245 235
187 184 185 186 189 189 189 188 185 193 197 204 211 213 216 217 218 220 216 225 220 210 203 211 217 230 231 236 241 240 256 253 257 262 265 262 263 264 263 266 264 266 243
177 179 179 180 183 185 187 189 189 197 198 203 210 214 216 219 220 221 229 224 229 219 205 211 218 227 232 235 230 242 241 242 248 255 261 261 258 259 253 259 266 268 254
160 168 172 173 175 181 187 189 192 198 200 202 206 212 215 224 224 220 227 226 223 213 211 220 224 227 228 236 239 240 245 246 249 248 243 250 250 248 254 255 256 263 269
157 156 157 161 166 174 178 185 190 194 195 197 205 204 209 214 218 222 220 226 221 219 215 218 223 223 222 226 237 238 236 241 248 258 265 264 259 256 248 247 248 251 266
153 150 147 151 153 158 166 177 187 192 196 202 206 208 207 208 211 216 219 219 222 220 222 223 224 225 224 223 229 240 237 243 250 254 250 253 266 265 261 252 249 245 249
149 145 139 137 142 149 158 167 181 191 196 199 203 206 208 211 213 214 217 219 222 225 223 224 225 228 227 228 232 240 241 241 244 249 250 254 253 254 264 264 256 254 249
151 145 139 139 141 143 153 170 185 190 189 189 201 205 210 213 218 222 220 219 219 224 226 219 220 225 227 228 231 237 240 241 243 244 246 253 256 256 257 260 256 253 247
158 155 150 148 144 145 151 171 190 193 195 192 200 205 217 221 222 223 222 222 221 220 220 220 224 226 227 228 231 230 233 237 239 242 246 250 249 252 256 250 250 254 256
169 167 165 157 156 151 150 156 166 178 192 197 209 213 222 226 227 225 223 222 222 222 219 220 226 227 228 231 231 230 225 230 235 237 241 236 233 259 269 270 254 245 245
176 174 173 169 170 166 165 161 166 170 185 199 213 216 222 224 225 223 219 220 222 224 221 222 224 228 235 215 240 248 233 230 233 236 239 229 215 206 205 256 286 280 250
183 184 183 182 180 178 175 179 178 177 184 194 204 214 223 230 228 220 213 216 220 222 221 223 223 226 225 195 214 238 237 233 233 234 239 245 221 216 230 209 211 228 230
190 191 192 188 187 181 176 180 179 182 189 195 204 219 226 228 232 232 223 220 218 223 226 225 224 224 215 193 210 230 231 237 232 230 229 234 233 239 238 235 233 236 228
196 194 193 188 181 182 179 183 186 185 196 202 214 222 222 224 232 238 234 232 228 228 232 231 227 225 217 199 210 224 229 226 229 228 223 226 226 198 227 232 234 239 239
186 184 183 180 178 179 179 185 190 192 201 209 220 227 230 229 232 238 240 240 238 240 244 239 235 228 224 195 202 223 230 229 226 220 217 207 220 202 216 229 235 240 242
178 177 177 180 176 174 179 191 195 208 210 207 216 219 222 229 233 241 245 250 248 248 252 251 247 238 230 197 195 216 230 230 229 225 225 206 175 198 217 236 239 244 251
176 175 176 181 177 179 180 187 198 202 197 200 210 218 221 229 214 220 233 237 243 240 242 245 254 246 228 218 201 206 228 254 238 239 235 204 176 198 213 224 232 236 237
173 179 177 172 176 183 188 192 191 189 194 209 217 223 231 234 232 226 227 231 232 246 253 253 259 257 241 208 199 206 219 239 247 249 225 184 194 208 212 209 212 222 231
170 175 175 175 180 189 197 189 183 189 193 208 215 212 218 223 219 239 236 238 246 252 259 259 264 266 258 248 230 223 217 219 235 241 205 188 201 217 217 202 207 219 228
161 168 173 176 181 186 197 188 184 190 202 218 225 220 221 218 224 231 259 253 257 279 273 273 269 267 265 281 295 259 241 238 234 230 229 224 213 220 219 222 224 221 215
161 161 164 174 179 180 190 192 193 198 206 215 230 232 229 231 242 236 222 50 28 116 110 336 307 292 314 314 296 278 271 254 214 219 231 230 229 232 229 224 224 222 221
Height
1526 1528 1530 1532 1534 1535 1536 1538 1539 1540 1541 1543 1544 1545 1545 1546 1547 1547 1547 1547 1547 1548 1548 1549 1548 1548 1549 1549 1549 1549 1549 1550 1549 1550 1550 1550 1550 1550 1550 1550 1550 1550 1550
1524 1526 1528 1530 1531 1533 1534 1536 1537 1539 1540 1541 1542 1543 1544 1545 1545 1546 1546 1546 1546 1547 1548 1547 1548 1548 1547 1547 1547 1547 1548 1548 1548 1548 1548 1548 1549 1548 1548 1548 1548 1549 1549
1521 1523 1525 1527 1529 1530 1532 1533 1535 1536 1538 1539 1541 1542 1542 1543 1544 1544 1545 1545 1545 1546 1546 1546 1546 1546 1547 1547 1546 1546 1547 1547 1547 1547 1548 1547 1546 1546 1547 1547 1547 1546 1546
1518 1520 1522 1524 1526 1528 1529 1531 1532 1534 1535 1537 1539 1539 1540 1541 1542 1543 1543 1544 1544 1545 1545 1545 1545 1545 1546 1545 1545 1545 1545 1545 1546 1546 1545 1546 1546 1546 1545 1546 1545 1545 1544
1514 1517 1519 1521 1523 1525 1526 1528 1529 1531 1532 1534 1536 1537 1538 1539 1540 1541 1541 1542 1542 1543 1543 1543 1543 1543 1544 1543 1543 1543 1543 1543 1544 1544 1544 1544 1544 1544 1544 1543 1544 1543 1543
1511 1514 1517 1519 1520 1522 1523 1525 1526 1527 1529 1531 1533 1534 1535 1537 1538 1538 1539 1540 1540 1540 1541 1541 1541 1541 1542 1541 1541 1541 1541 1541 1541 1542 1542 1542 1542 1542 1542 1541 1541 1541 1541
1508 1511 1514 1516 1517 1519 1520 1522 1523 1524 1526 1527 1529 1531 1532 1533 1534 1536 1537 1537 1538 1538 1538 1539 1539 1539 1539 1539 1539 1538 1539 1539 1539 1539 1539 1540 1540 1540 1540 1539 1539 1539 1539
1505 1508 1511 1513 1514 1516 1518 1519 1521 1521 1522 1524 1526 1527 1529 1531 1532 1533 1534 1535 1535 1536 1536 1536 1536 1536 1536 1537 1537 1537 1537 1536 1536 1537 1536 1537 1537 1537 1537 1537 1537 1536 1536
1504 1506 1508 1510 1511 1513 1515 1517 1518 1519 1520 1521 1522 1524 1525 1527 1529 1529 1531 1532 1532 1532 1532 1533 1533 1533 1533 1534 1534 1534 1534 1534 1535 1535 1534 1534 1534 1534 1534 1534 1534 1535 1534
1502 1505 1506 1508 1509 1511 1513 1514 1516 1516 1517 1518 1519 1521 1522 1524 1525 1526 1527 1528 1529 1529 1529 1530 1530 1530 1530 1531 1531 1532 1532 1531 1532 1532 1531 1531 1532 1532 1532 1532 1531 1531 1532
1501 1503 1505 1507 1508 1510 1511 1512 1513 1514 1515 1516 1517 1518 1519 1521 1522 1523 1524 1525 1526 1526 1526 1527 1527 1527 1527 1528 1528 1529 1529 1529 1529 1529 1529 1529 1529 1529 1529 1529 1529 1529 1529
1500 1502 1504 1506 1507 1508 1509 1510 1512 1512 1513 1514 1514 1515 1516 1518 1519 1520 1521 1522 1522 1523 1524 1524 1524 1525 1525 1525 1525 1526 1526 1526 1526 1526 1526 1526 1526 1525 1526 1526 1526 1526 1525
1499 1502 1503 1504 1506 1507 1508 1509 1510 1511 1512 1512 1512 1513 1514 1515 1516 1517 1518 1519 1519 1520 1521 1521 1521 1522 1522 1522 1522 1522 1522 1522 1522 1522 1522 1522 1522 1522 1523 1522 1522 1523 1522
1498 1500 1502 1503 1504 1505 1506 1507 1508 1509 1510 1510 1510 1511 1511 1512 1513 1514 1515 1515 1516 1517 1517 1518 1518 1518 1519 1519 1519 1519 1519 1519 1519 1519 1519 1519 1519 1519 1519 1519 1518 1519 1519
1496 1498 1500 1502 1503 1504 1504 1505 1506 1506 1507 1507 1508 1508 1509 1510 1510 1511 1511 1512 1513 1513 1514 1514 1515 1515 1516 1516 1516 1516 1516 1516 1515 1515 1515 1515 1515 1515 1515 1516 1515 1515 1515
1494 1496 1498 1499 1500 1501 1502 1502 1503 1504 1504 1505 1506 1506 1506 1507 1507 1507 1508 1508 1509 1510 1510 1510 1511 1511 1512 1512 1512 1512 1513 1512 1512 1512 1511 1511 1511 1511 1511 1511 1512 1512 1512
1491 1493 1495 1497 1498 1499 1499 1500 1501 1502 1502 1503 1503 1503 1503 1504 1504 1504 1504 1505 1505 1506 1506 1507 1507 1507 1507 1508 1508 1509 1509 1508 1508 1508 1508 1509 1508 1508 1508 1508 1508 1508 1508
1489 1491 1493 1494 1496 1496 1497 1498 1499 1500 1500 1500 1500 1501 1501 1501 1501 1501 1501 1501 1502 1502 1502 1503 1503 1503 1503 1504 1504 1504 1505 1504 1504 1504 1504 1504 1504 1505 1504 1504 1504 1504 1504
1486 1488 1490 1492 1493 1494 1495 1495 1496 1497 1498 1498 1498 1498 1498 1498 1498 1497 1498 1498 1498 1499 1499 1499 1499 1499 1499 1500 1500 1501 1501 1500 1500 1500 1500 1500 1501 1500 1500 1501 1501 1500 1500
1484 1486 1487 1489 1490 1491 1492 1493 1494 1494 1495 1495 1495 1495 1495 1495 1495 1495 1495 1495 1495 1495 1496 1496 1495 1495 1495 1495 1496 1497 1497 1497 1497 1497 1497 1497 1497 1497 1497 1498 1498 1497 1497
1482 1483 1485 1486 1487 1488 1489 1490 1491 1492 1492 1492 1492 1492 1493 1493 1492 1492 1492 1492 1492 1493 1493 1493 1493 1492 1492 1491 1491 1492 1493 1493 1493 1494 1494 1493 1493 1493 1494 1494 1494 1494 1494
1479 1481 1482 1483 1485 1486 1487 1487 1488 1489 1489 1489 1490 1490 1490 1490 1490 1490 1489 1489 1490 1490 1490 1490 1490 1489 1489 1488 1487 1488 1489 1489 1490 1490 1491 1490 1490 1490 1490 1490 1490 1491 1491
1477 1478 1479 1480 1482 1483 1484 1485 1486 1486 1486 1487 1487 1487 1487 1487 1488 1487 1487 1487 1487 1487 1488 1488 1487 1487 1486 1485 1484 1484 1485 1485 1486 1486 1486 1486 1486 1486 1486 1486 1487 1487 1488
1475 1476 1477 1478 1479 1481 1482 1483 1483 1484 1484 1484 1484 1484 1484 1485 1484 1485 1485 1484 1484 1484 1485 1485 1484 1484 1483 1482 1481 1481 1481 1481 1482 1482 1482 1482 1482 1482 1482 1483 1483 1483 1484
1473 1474 1474 1475 1477 1478 1479 1481 1481 1481 1481 1482 1482 1482 1482 1482 1482 1482 1482 1482 1481 1481 1481 1481 1481 1480 1480 1479 1478 1478 1478 1478 1478 1478 1479 1479 1479 1479 1479 1479 1480 1480 1480
1471 1472 1473 1474 1475 1476 1477 1478 1479 1479 1479 1479 1479 1480 1480 1479 1479 1479 1479 1478 1478 1477 1477 1477 1477 1476 1476 1475 1475 1474 1474 1474 1474 1474 1474 1475 1475 1475 1475 1476 1476 1476 1477